Showing default

O3B FM17, 44114

Orbit data source: Space-Track

O3B FM17, 44114 is a payload satellite owned by O3B SES (JE) that was launched on Thu, 04 Apr 2019 UTC via a SOYUZ-ST-B launch vehicle from the French Guiana (FRGUI). Payload-class satellites include a variety of spacecraft equipped with specific instruments for various scientific and technological missions. These include communications satellites like Starlink; space stations such as the ISS; scientific satellites like the Hubble; Earth observation satellites from companies like Planet Labs, Umbra, and HawkEye 360; GPS; miniature CubeSats for education and research; and military/defense satellites.

Loading next visibility...
Identifier
44114, 2019-020C
Orbit
Active
Last TLE update
17 hours ago
Origin
Manufacturer
Thales Alenia
Mission
Operational Commercial Communications
Bus & Motor
PRISMA?, LS-400 AOCS?
Mass
700 kg wet, ~500 kg dry
Launch date (UTC)
2019-04-04 (6 years ago)
Launch vehicle
SOYUZ-ST-B
Launch site
French Guiana (FRGUI)
Object type
Payload
Rocket body
Debris
Shape & HBR
Trap Box + 2 Pan, 12 m
Radar Cross Section
21.980 m², Large (>1 m²)

Expand to show TLE details & history

TLE from 17 hours ago
0 O3B FM17
1 44114U 19020C   25183.11079616 -.00000023  00000-0  00000-0 0  9992
2 44114   0.0678 358.2512 0003125 100.0471 261.7351  5.00115280114011
Epoch: 2025-07-02T02:39Z
TLE epoch observation values (Epoch: 2025-07-02T02:39:32.788Z)
Latitude
0.00098°
Longitude
39.71676°
Altitude
8,065.026 km
Speed
5.254 km/s
True Right ascension
23h 59m 59s
True Declination
0° 00' 04"
Sunlit
Object was in daylight at epoch
Visualization orbit readout
Latitude
-0.05276°
Longitude
-94.09475°
Altitude
8,067.13 km
Speed
5.253 km/s
Apparent Right ascension
16h 09m 01s
Apparent Declination
-13° 44' 00"
Sunlit
Object is in daylight
Visualization observer readout
Local Sidereal Time
07:47:50
Azimuth
77.343° E
Elevation
-35.649°
Doppler factor
1
Orbital elements
Apogee altitude
8,073.468 km
Perigee altitude
8,064.438 km
Semi-major axis
14,447.09 km
Eccentricity
0.00031
Inclination
0.0678°
RAAN
358.2512°
Arg. of periapsis
100.0471°
True anomaly
Unknown
Mean anomaly
261.7351°
Eccentric anomaly
Unknown
Mean motion
1.24989 °/min
Orbital period
288.02 mins
BSTAR
0
Loading maneuver chart data...
Loading SW <> Apogee altitude chart data...
Loading historical data...
Loading historical data...
Loading historical data...
Loading historical data...
Loading historical data...
Loading historical data...
Loading historical data...
Other satellites on launch #20 in the year 2019 (2019-04-04 UTC)

O3B FM17 Visibility forecast

Observer location: undefined°, undefined°

Span
Click to sort rows by Start time (UTC) header in descending order
Start Az.
Max El. time (UTC)
Max El. Az.
Max El.
End time (UTC)
End Az.
79 mins2025-07-02 23:34:52.512Z232.464° WSW2025-07-03 00:14:52.512Z179.636° S24.367°2025-07-03 00:53:52.512Z128.17° SE
78 mins2025-07-03 05:35:52.512Z231.384° WSW2025-07-03 06:14:52.512Z179.684° S24.309°2025-07-03 06:53:52.512Z128.213° SE
79 mins2025-07-03 11:35:52.512Z231.432° WSW2025-07-03 12:14:52.512Z179.748° S24.374°2025-07-03 12:54:52.512Z127.155° SE
78 mins2025-07-03 17:35:52.512Z231.519° WSW2025-07-03 18:14:52.512Z179.701° S24.43°2025-07-03 18:53:52.512Z128.101° SE
|